EZY807 EGPH-EGKK

Flight info

Callsign EZY807
Flight time 1h 5m
Altitude 37000
Route GOSAM P600 FENIK L612 NAVSO DCT ADZOP DCT EGTOC DCT KEPAD L151 DISIT
Aircraft A320/M-SDE3FGHIRWY/LB1

Departure

Time 2026-05-05 11:30
Airport Edinburgh Airport (EGPH)

Arrival

Time 2026-05-05 12:35
Airport London Gatwick Airport (EGKK)
Time Latitude Longitude Altitude Speed Heading
2026-05-05 11:13 55.94859 -3.36610 113 ft 0 kts 145°
2026-05-05 11:21 55.94866 -3.36619 113 ft 4 kts 145°
2026-05-05 11:21 55.94887 -3.36645 114 ft 2 kts 145°
2026-05-05 11:21 55.94907 -3.36663 113 ft 4 kts 182°
2026-05-05 11:22 55.94928 -3.36647 115 ft 4 kts 232°
2026-05-05 11:22 55.94933 -3.36635 114 ft 0 kts 239°
2026-05-05 11:24 55.94931 -3.36643 116 ft 4 kts 239°
2026-05-05 11:24 55.94899 -3.36737 114 ft 10 kts 239°
2026-05-05 11:25 55.94919 -3.36830 114 ft 8 kts 311°
2026-05-05 11:25 55.94914 -3.36936 113 ft 15 kts 240°
2026-05-05 11:25 55.94845 -3.37136 113 ft 20 kts 239°
2026-05-05 11:25 55.94776 -3.37343 115 ft 18 kts 239°
2026-05-05 11:26 55.94711 -3.37532 115 ft 17 kts 238°
2026-05-05 11:26 55.94651 -3.37708 114 ft 16 kts 239°
2026-05-05 11:26 55.94595 -3.37873 114 ft 15 kts 239°
2026-05-05 11:26 55.94537 -3.38043 113 ft 20 kts 238°
2026-05-05 11:27 55.94449 -3.38299 114 ft 26 kts 239°
2026-05-05 11:27 55.94360 -3.38564 114 ft 23 kts 239°
2026-05-05 11:27 55.94293 -3.38762 112 ft 14 kts 238°
2026-05-05 11:27 55.94309 -3.38892 113 ft 11 kts 326°
2026-05-05 11:28 55.94318 -3.38902 114 ft 0 kts 329°
2026-05-05 11:28 55.94335 -3.38921 114 ft 9 kts 329°
2026-05-05 11:28 55.94404 -3.38973 114 ft 11 kts
2026-05-05 11:29 55.94441 -3.38895 114 ft 11 kts 58°
2026-05-05 11:29 55.94595 -3.38441 113 ft 79 kts 59°
2026-05-05 11:29 55.94984 -3.37273 112 ft 137 kts 60°
2026-05-05 11:29 55.95507 -3.35766 711 ft 142 kts 58°
2026-05-05 11:30 55.96069 -3.34269 1440 ft 152 kts 50°
2026-05-05 11:30 55.96890 -3.32905 1959 ft 169 kts 43°
2026-05-05 11:30 55.97800 -3.31470 2562 ft 180 kts 42°
2026-05-05 11:30 55.98780 -3.29912 3082 ft 202 kts 42°
2026-05-05 11:31 55.99951 -3.28331 3813 ft 214 kts 22°
2026-05-05 11:31 56.01436 -3.28137 4529 ft 230 kts 345°
2026-05-05 11:31 56.02794 -3.29798 5176 ft 252 kts 308°
2026-05-05 11:31 56.03355 -3.32825 5988 ft 267 kts 272°
2026-05-05 11:32 56.03100 -3.36142 6977 ft 271 kts 258°
2026-05-05 11:32 56.02546 -3.39358 8045 ft 271 kts 253°
2026-05-05 11:32 56.01961 -3.42569 9069 ft 271 kts 255°
2026-05-05 11:32 56.01434 -3.45816 10062 ft 273 kts 257°
2026-05-05 11:33 56.00937 -3.49155 10738 ft 285 kts 257°
2026-05-05 11:33 56.00432 -3.52715 11098 ft 308 kts 258°
2026-05-05 11:33 55.99902 -3.56585 11435 ft 329 kts 258°
2026-05-05 11:33 55.99352 -3.60600 12103 ft 336 kts 258°
2026-05-05 11:34 55.98785 -3.64678 12900 ft 340 kts 258°
2026-05-05 11:34 55.98205 -3.68803 13719 ft 344 kts 257°
2026-05-05 11:34 55.97612 -3.72951 14442 ft 347 kts 257°
2026-05-05 11:34 55.97007 -3.77144 15142 ft 350 kts 257°
2026-05-05 11:35 55.96394 -3.81378 15845 ft 353 kts 257°
2026-05-05 11:35 55.95775 -3.85637 16541 ft 357 kts 257°
2026-05-05 11:35 55.95148 -3.89943 17227 ft 360 kts 257°
2026-05-05 11:35 55.94514 -3.94288 17902 ft 363 kts 257°
2026-05-05 11:36 55.93750 -3.98611 18512 ft 369 kts 248°
2026-05-05 11:36 55.92417 -4.02553 19049 ft 376 kts 233°
2026-05-05 11:36 55.90513 -4.05816 19577 ft 384 kts 219°
2026-05-05 11:36 55.88302 -4.08538 20131 ft 388 kts 217°
2026-05-05 11:37 55.86059 -4.11276 20690 ft 391 kts 217°
2026-05-05 11:37 55.83805 -4.14024 21238 ft 395 kts 217°
2026-05-05 11:37 55.81535 -4.16791 21746 ft 398 kts 217°
2026-05-05 11:37 55.79240 -4.19592 22278 ft 401 kts 217°
2026-05-05 11:38 55.76870 -4.22232 22775 ft 407 kts 208°
2026-05-05 11:38 55.74206 -4.23880 23267 ft 414 kts 194°
2026-05-05 11:38 55.71318 -4.24454 23742 ft 421 kts 182°
2026-05-05 11:38 55.68345 -4.24001 24154 ft 427 kts 171°
2026-05-05 11:39 55.65499 -4.22642 24565 ft 432 kts 162°
2026-05-05 11:39 55.62731 -4.20528 24966 ft 436 kts 154°
2026-05-05 11:39 55.60063 -4.17943 25388 ft 438 kts 153°
2026-05-05 11:39 55.57388 -4.15335 25791 ft 440 kts 153°
2026-05-05 11:40 55.54701 -4.12716 26196 ft 442 kts 153°
2026-05-05 11:40 55.51993 -4.10079 26594 ft 445 kts 153°
2026-05-05 11:40 55.49279 -4.07437 26996 ft 447 kts 153°
2026-05-05 11:40 55.46553 -4.04784 27379 ft 449 kts 153°
2026-05-05 11:41 55.43806 -4.02117 27749 ft 451 kts 153°
2026-05-05 11:41 55.41058 -3.99452 28141 ft 452 kts 153°
2026-05-05 11:41 55.38299 -3.96779 28506 ft 454 kts 153°
2026-05-05 11:41 55.35527 -3.94096 28849 ft 456 kts 153°
2026-05-05 11:42 55.32733 -3.91404 29186 ft 458 kts 153°
2026-05-05 11:42 55.29933 -3.88712 29516 ft 460 kts 153°
2026-05-05 11:42 55.27113 -3.86000 29846 ft 462 kts 153°
2026-05-05 11:42 55.24290 -3.83289 30154 ft 464 kts 154°
2026-05-05 11:43 55.21365 -3.80903 30505 ft 461 kts 162°
2026-05-05 11:43 55.18336 -3.79150 30869 ft 458 kts 166°
2026-05-05 11:43 55.15291 -3.77475 31263 ft 457 kts 166°
2026-05-05 11:43 55.12265 -3.75822 31659 ft 456 kts 166°
2026-05-05 11:44 55.09237 -3.74178 32051 ft 455 kts 166°
2026-05-05 11:44 55.06220 -3.72546 32448 ft 454 kts 166°
2026-05-05 11:44 55.03214 -3.70917 32836 ft 453 kts 166°
2026-05-05 11:44 55.00211 -3.69281 33228 ft 452 kts 166°
2026-05-05 11:45 54.97218 -3.67645 33619 ft 451 kts 166°
2026-05-05 11:45 54.94228 -3.66011 33978 ft 450 kts 166°
2026-05-05 11:45 54.91244 -3.64387 34340 ft 449 kts 166°
2026-05-05 11:45 54.88265 -3.62775 34656 ft 448 kts 166°
2026-05-05 11:46 54.85275 -3.61165 34954 ft 449 kts 166°
2026-05-05 11:46 54.82293 -3.59564 35226 ft 449 kts 166°
2026-05-05 11:46 54.79313 -3.57965 35485 ft 449 kts 166°
2026-05-05 11:46 54.76322 -3.56354 35741 ft 450 kts 166°
2026-05-05 11:47 54.73331 -3.54742 35999 ft 450 kts 166°
2026-05-05 11:47 54.70337 -3.53130 36236 ft 451 kts 166°
2026-05-05 11:47 54.67338 -3.51520 36469 ft 451 kts 165°
2026-05-05 11:47 54.64340 -3.49916 36715 ft 451 kts 165°
2026-05-05 11:48 54.58326 -3.46708 37043 ft 453 kts 165°
2026-05-05 11:48 54.52321 -3.43410 37051 ft 453 kts 164°
2026-05-05 11:49 54.46343 -3.39920 37040 ft 454 kts 163°
2026-05-05 11:49 54.40413 -3.36425 37037 ft 453 kts 163°
2026-05-05 11:50 54.34446 -3.32957 37042 ft 453 kts 163°
2026-05-05 11:50 54.28468 -3.29531 37046 ft 453 kts 163°
2026-05-05 11:51 54.22494 -3.26115 37052 ft 453 kts 164°
2026-05-05 11:51 54.16510 -3.22700 37052 ft 453 kts 163°
2026-05-05 11:52 54.11538 -3.19859 37054 ft 453 kts 163°
2026-05-05 11:52 54.05561 -3.16449 37063 ft 453 kts 163°
2026-05-05 11:53 53.99578 -3.13060 37054 ft 453 kts 163°
2026-05-05 11:53 53.93589 -3.09686 37060 ft 453 kts 163°
2026-05-05 11:54 53.87605 -3.06313 37068 ft 453 kts 163°
2026-05-05 11:54 53.81575 -3.02928 37067 ft 453 kts 163°
2026-05-05 11:55 53.75601 -2.99581 37068 ft 452 kts 163°
2026-05-05 11:55 53.69630 -2.96241 37058 ft 452 kts 163°
2026-05-05 11:56 53.63686 -2.92927 37065 ft 452 kts 163°
2026-05-05 11:56 53.57671 -2.89599 37067 ft 451 kts 163°
2026-05-05 11:57 53.51710 -2.86295 37066 ft 451 kts 163°
2026-05-05 11:57 53.45749 -2.82996 37065 ft 451 kts 163°
2026-05-05 11:58 53.39792 -2.79716 37063 ft 451 kts 163°
2026-05-05 11:58 53.33828 -2.76465 37062 ft 451 kts 163°
2026-05-05 11:59 53.27902 -2.73235 37062 ft 451 kts 163°
2026-05-05 11:59 53.21940 -2.69973 37056 ft 451 kts 163°
2026-05-05 12:00 53.15975 -2.66729 37060 ft 450 kts 163°
2026-05-05 12:00 53.10018 -2.63503 37061 ft 450 kts 163°
2026-05-05 12:01 53.04059 -2.60274 37064 ft 450 kts 163°
2026-05-05 12:01 52.98107 -2.57065 37062 ft 450 kts 163°
2026-05-05 12:02 52.95120 -2.55460 36836 ft 450 kts 162°
2026-05-05 12:02 52.92142 -2.53859 36574 ft 450 kts 163°
2026-05-05 12:02 52.89170 -2.52262 36314 ft 449 kts 162°
2026-05-05 12:02 52.86189 -2.50668 36054 ft 449 kts 162°
2026-05-05 12:03 52.83220 -2.49072 35803 ft 448 kts 160°
2026-05-05 12:03 52.80368 -2.47017 35552 ft 448 kts 151°
2026-05-05 12:03 52.77722 -2.44305 35305 ft 447 kts 146°
2026-05-05 12:03 52.75176 -2.41486 35061 ft 446 kts 146°
2026-05-05 12:04 52.72601 -2.38637 34822 ft 446 kts 145°
2026-05-05 12:04 52.70022 -2.35789 34575 ft 445 kts 145°
2026-05-05 12:04 52.67450 -2.32955 34332 ft 445 kts 145°
2026-05-05 12:04 52.64877 -2.30123 34101 ft 445 kts 145°
2026-05-05 12:05 52.62294 -2.27289 33841 ft 445 kts 145°
2026-05-05 12:05 52.59724 -2.24475 33562 ft 445 kts 145°
2026-05-05 12:05 52.57142 -2.21659 33282 ft 445 kts 146°
2026-05-05 12:05 52.54556 -2.18844 33010 ft 446 kts 146°
2026-05-05 12:06 52.51975 -2.16035 32742 ft 447 kts 146°
2026-05-05 12:06 52.49381 -2.13207 32282 ft 447 kts 147°
2026-05-05 12:06 52.46771 -2.10366 31077 ft 454 kts 148°
2026-05-05 12:06 52.44121 -2.07490 29941 ft 459 kts 148°
2026-05-05 12:07 52.41468 -2.04617 29305 ft 452 kts 148°
2026-05-05 12:07 52.38844 -2.01782 29057 ft 452 kts 148°
2026-05-05 12:07 52.33606 -1.96127 29014 ft 451 kts 148°
2026-05-05 12:08 52.28350 -1.90460 29013 ft 452 kts 148°
2026-05-05 12:08 52.25735 -1.87645 28468 ft 448 kts 148°
2026-05-05 12:08 52.23150 -1.84860 27687 ft 443 kts 148°
2026-05-05 12:09 52.20584 -1.82104 26913 ft 438 kts 148°
2026-05-05 12:09 52.18046 -1.79388 26156 ft 434 kts 148°
2026-05-05 12:09 52.15533 -1.76706 25449 ft 430 kts 148°
2026-05-05 12:09 52.13041 -1.74049 24759 ft 426 kts 148°
2026-05-05 12:10 52.10572 -1.71418 24086 ft 423 kts 148°
2026-05-05 12:10 52.08111 -1.68801 23402 ft 419 kts 148°
2026-05-05 12:10 52.05682 -1.66217 22664 ft 416 kts 148°
2026-05-05 12:10 52.03270 -1.63653 21979 ft 412 kts 149°
2026-05-05 12:11 52.00884 -1.61127 21334 ft 408 kts 149°
2026-05-05 12:11 51.98517 -1.58630 20679 ft 403 kts 149°
2026-05-05 12:11 51.96200 -1.56187 19697 ft 395 kts 149°
2026-05-05 12:11 51.93908 -1.53769 18589 ft 390 kts 148°
2026-05-05 12:12 51.91647 -1.51381 17419 ft 387 kts 148°
2026-05-05 12:12 51.89396 -1.49001 16376 ft 388 kts 148°
2026-05-05 12:12 51.87138 -1.46618 15806 ft 385 kts 148°
2026-05-05 12:12 51.84896 -1.44259 15248 ft 383 kts 147°
2026-05-05 12:13 51.82669 -1.41926 14995 ft 383 kts 147°
2026-05-05 12:13 51.80434 -1.39592 14965 ft 383 kts 147°
2026-05-05 12:13 51.78197 -1.37257 14974 ft 382 kts 146°
2026-05-05 12:13 51.75946 -1.34901 14975 ft 381 kts 146°
2026-05-05 12:14 51.73747 -1.32603 14976 ft 381 kts 146°
2026-05-05 12:14 51.71494 -1.30248 14977 ft 380 kts 146°
2026-05-05 12:14 51.69275 -1.27930 14978 ft 380 kts 146°
2026-05-05 12:14 51.67057 -1.25613 14975 ft 380 kts 146°
2026-05-05 12:15 51.64858 -1.23323 14974 ft 380 kts 146°
2026-05-05 12:15 51.62606 -1.20984 14975 ft 381 kts 146°
2026-05-05 12:15 51.60410 -1.18708 14975 ft 381 kts 146°
2026-05-05 12:15 51.58185 -1.16405 14974 ft 381 kts 147°
2026-05-05 12:16 51.55954 -1.14101 14975 ft 381 kts 146°
2026-05-05 12:16 51.53721 -1.11799 14975 ft 381 kts 146°
2026-05-05 12:16 51.51499 -1.09504 14812 ft 377 kts 146°
2026-05-05 12:16 51.49302 -1.07236 14250 ft 375 kts 146°
2026-05-05 12:17 51.47114 -1.04981 13692 ft 373 kts 146°
2026-05-05 12:17 51.44938 -1.02741 13136 ft 371 kts 146°
2026-05-05 12:17 51.42762 -1.00506 12958 ft 371 kts 146°
2026-05-05 12:17 51.40585 -0.98271 12969 ft 372 kts 146°
2026-05-05 12:18 51.38403 -0.96032 12973 ft 371 kts 146°
2026-05-05 12:18 51.36284 -0.93864 12972 ft 354 kts 146°
2026-05-05 12:18 51.34239 -0.91774 12971 ft 342 kts 146°
2026-05-05 12:18 51.32267 -0.89765 12957 ft 331 kts 145°
2026-05-05 12:19 51.30340 -0.87802 12619 ft 326 kts 145°
2026-05-05 12:19 51.28445 -0.85870 12339 ft 320 kts 146°
2026-05-05 12:19 51.26580 -0.83969 11973 ft 316 kts 146°
2026-05-05 12:19 51.24732 -0.82084 11587 ft 314 kts 146°
2026-05-05 12:20 51.22885 -0.80207 11086 ft 316 kts 146°
2026-05-05 12:20 51.21034 -0.78325 10652 ft 315 kts 146°
2026-05-05 12:20 51.19188 -0.76451 10280 ft 313 kts 147°
2026-05-05 12:20 51.17375 -0.74614 10131 ft 303 kts 147°
2026-05-05 12:21 51.15627 -0.72842 9987 ft 293 kts 146°
2026-05-05 12:21 51.13946 -0.71140 9696 ft 289 kts 146°
2026-05-05 12:21 51.12237 -0.69412 9320 ft 286 kts 147°
2026-05-05 12:21 51.10578 -0.67736 8951 ft 284 kts 146°
2026-05-05 12:22 51.08917 -0.66058 8570 ft 282 kts 146°
2026-05-05 12:22 51.07260 -0.64385 8180 ft 280 kts 146°
2026-05-05 12:22 51.05771 -0.62462 7967 ft 271 kts 132°
2026-05-05 12:22 51.04679 -0.60120 7962 ft 259 kts 118°
2026-05-05 12:23 51.03876 -0.57582 7967 ft 256 kts 115°
2026-05-05 12:23 51.03082 -0.55054 7957 ft 256 kts 115°
2026-05-05 12:23 51.02289 -0.52551 7958 ft 248 kts 115°
2026-05-05 12:23 51.01523 -0.50129 7953 ft 245 kts 115°
2026-05-05 12:24 51.00764 -0.47715 7937 ft 244 kts 115°
2026-05-05 12:24 51.00010 -0.45317 7610 ft 242 kts 116°
2026-05-05 12:24 50.99257 -0.42923 7269 ft 241 kts 116°
2026-05-05 12:24 50.98509 -0.40552 6958 ft 239 kts 116°
2026-05-05 12:25 50.97767 -0.38194 6641 ft 238 kts 115°
2026-05-05 12:25 50.97032 -0.35868 6327 ft 236 kts 115°
2026-05-05 12:25 50.96303 -0.33530 6033 ft 233 kts 111°
2026-05-05 12:25 50.96070 -0.31043 5977 ft 230 kts 80°
2026-05-05 12:26 50.96725 -0.28773 5980 ft 228 kts 47°
2026-05-05 12:26 50.98036 -0.27476 5984 ft 224 kts 14°
2026-05-05 12:26 50.99583 -0.27495 5984 ft 227 kts 343°
2026-05-05 12:26 51.00892 -0.28856 5847 ft 228 kts 310°
2026-05-05 12:27 51.01573 -0.31120 5528 ft 232 kts 286°
2026-05-05 12:27 51.01912 -0.33639 5213 ft 234 kts 281°
2026-05-05 12:27 51.02205 -0.36167 4903 ft 232 kts 281°
2026-05-05 12:27 51.02486 -0.38685 4547 ft 231 kts 281°
2026-05-05 12:28 51.02754 -0.41202 4169 ft 231 kts 281°
2026-05-05 12:28 51.03004 -0.43702 3879 ft 230 kts 281°
2026-05-05 12:28 51.03247 -0.46207 3620 ft 228 kts 281°
2026-05-05 12:28 51.03486 -0.48681 3438 ft 224 kts 281°
2026-05-05 12:29 51.03784 -0.51067 3301 ft 216 kts 295°
2026-05-05 12:29 51.04678 -0.52844 3186 ft 203 kts 330°
2026-05-05 12:29 51.05978 -0.53563 3093 ft 198 kts
2026-05-05 12:29 51.07260 -0.52917 2996 ft 195 kts 33°
2026-05-05 12:30 51.07962 -0.52062 2988 ft 188 kts 39°
2026-05-05 12:30 51.09232 -0.50271 2987 ft 180 kts 41°
2026-05-05 12:30 51.10159 -0.48916 2988 ft 181 kts 43°
2026-05-05 12:30 51.10853 -0.47251 2989 ft 185 kts 69°
2026-05-05 12:31 51.11157 -0.45262 2988 ft 185 kts 74°
2026-05-05 12:31 51.11342 -0.43935 3004 ft 177 kts 73°
2026-05-05 12:31 51.11601 -0.42084 2882 ft 168 kts 74°
2026-05-05 12:31 51.11854 -0.40284 2687 ft 165 kts 74°
2026-05-05 12:32 51.12102 -0.38517 2476 ft 162 kts 73°
2026-05-05 12:32 51.12344 -0.36785 2267 ft 158 kts 73°
2026-05-05 12:32 51.12583 -0.35082 2042 ft 157 kts 73°
2026-05-05 12:32 51.12819 -0.33391 1835 ft 156 kts 74°
2026-05-05 12:33 51.13057 -0.31686 1638 ft 158 kts 74°
2026-05-05 12:33 51.13292 -0.29997 1426 ft 154 kts 73°
2026-05-05 12:33 51.13511 -0.28412 1204 ft 139 kts 72°
2026-05-05 12:33 51.13712 -0.26966 1017 ft 131 kts 73°
2026-05-05 12:34 51.13906 -0.25576 849 ft 126 kts 75°
2026-05-05 12:34 51.14097 -0.24203 675 ft 126 kts 73°
2026-05-05 12:34 51.14289 -0.22849 485 ft 126 kts 75°
2026-05-05 12:34 51.14478 -0.21488 348 ft 125 kts 76°
2026-05-05 12:35 51.14660 -0.20140 222 ft 123 kts 75°
2026-05-05 12:35 51.14822 -0.18986 209 ft 84 kts 78°
2026-05-05 12:35 51.14913 -0.18309 208 ft 45 kts 78°
2026-05-05 12:35 51.14987 -0.17950 206 ft 26 kts 55°
2026-05-05 12:36 51.15065 -0.17774 209 ft 12 kts 48°
2026-05-05 12:36 51.15100 -0.17754 206 ft 0 kts 358°
2026-05-05 12:37 51.15101 -0.17754 206 ft 1 kts 358°
2026-05-05 12:37 51.15150 -0.17759 205 ft 10 kts 353°
2026-05-05 12:37 51.15220 -0.17775 213 ft 11 kts 352°
2026-05-05 12:38 51.15268 -0.17691 207 ft 13 kts 79°
2026-05-05 12:38 51.15286 -0.17536 204 ft 13 kts 79°
2026-05-05 12:38 51.15309 -0.17389 213 ft 14 kts 59°
2026-05-05 12:38 51.15408 -0.17386 214 ft 16 kts 348°
2026-05-05 12:39 51.15527 -0.17430 214 ft 19 kts 347°
2026-05-05 12:39 51.15662 -0.17477 207 ft 18 kts 348°
2026-05-05 12:39 51.15755 -0.17546 204 ft 9 kts 279°
2026-05-05 12:39 51.15744 -0.17620 210 ft 6 kts 260°
2026-05-05 12:40 51.15735 -0.17697 204 ft 9 kts 259°
2026-05-05 12:40 51.15723 -0.17789 204 ft 8 kts 257°
2026-05-05 12:40 51.15727 -0.17863 208 ft 6 kts 320°
2026-05-05 12:40 51.15765 -0.17879 204 ft 4 kts 350°
2026-05-05 12:41 51.15781 -0.17884 204 ft 1 kts 347°